FW4266 Weather Reports


time (UTC)temp
C
wind
direction
speed
KPH
gust
KPH
rain 1hr
cm
rain 24hr
cm
rain mn
cm
humidity
%
barometer
mb
20260506180021 15 250 1.6 8.0 0.00 0.33 0.00 65 1021.3
20260506175519 16 236 1.6 6.4 0.00 0.33 0.00 64 1021.3
20260506175019 16 134 1.6 6.4 0.00 0.33 0.00 62 1021.4
20260506174518 16 254 0.0 1.6 0.00 0.33 0.00 63 1021.4
20260506174016 15 251 0.0 3.2 0.00 0.33 0.00 67 1021.6
20260506173515 15 207 0.0 3.2 0.00 0.33 0.00 66 1021.5
20260506173013 14 19 0.0 8.0 0.00 0.33 0.00 65 1021.6
20260506172512 13 258 1.6 8.0 0.00 0.33 0.00 63 1021.5
20260506172013 13 210 1.6 8.0 0.00 0.33 0.00 65 1021.5
20260506171516 13 261 1.6 8.0 0.00 0.33 0.00 67 1021.5
20260506171011 13 219 0.0 6.4 0.00 0.33 0.00 69 1021.5
20260506170513 13 231 1.6 6.4 0.00 0.33 0.00 67 1021.5
20260506170011 13 236 0.0 6.4 0.00 0.33 0.00 67 1021.6
20260506165510 13 255 0.0 6.4 0.00 0.33 0.00 68 1021.6
20260506165008 12 235 1.6 6.4 0.00 0.33 0.00 69 1021.7
20260506164510 13 306 1.6 0.0 0.00 0.00 0.00 67 1021.7
20260506164007 13 248 0.0 6.4 0.00 0.33 0.00 68 1021.6
20260506163505 13 238 0.0 4.8 0.00 0.33 0.00 69 1021.6
20260506163004 12 252 0.0 6.4 0.00 0.33 0.00 70 1021.6
20260506162505 12 252 0.0 6.4 0.00 0.33 0.00 67 1021.6
20260506162005 12 250 0.0 4.8 0.00 0.33 0.00 70 1021.5
20260506161502 12 268 0.0 6.4 0.00 0.33 0.00 71 1021.6
20260506161100 12 194 0.0 6.4 0.00 0.33 0.00 71 1021.5
20260506160600 12 212 0.0 4.8 0.00 0.33 0.00 71 1021.6
20260506155558 11 209 0.0 4.8 0.00 0.36 0.00 72 1021.5
20260506155057 11 263 0.0 1.6 0.00 0.36 0.00 71 1021.6
20260506154556 11 220 0.0 0.0 0.00 0.36 0.00 73 1021.6
20260506154057 11 233 0.0 4.8 0.00 0.36 0.00 74 1021.6
20260506153553 11 240 0.0 4.8 0.00 0.36 0.00 68 1021.5
20260506153107 11 255 0.0 3.2 0.00 0.36 0.00 71 1021.5
20260506152552 10 238 0.0 0.0 0.00 0.36 0.00 72 1021.5
20260506152049 10 264 0.0 0.0 0.00 0.36 0.00 71 1021.4
20260506151549 10 264 0.0 0.0 0.00 0.36 0.00 72 1021.5
20260506151047 10 268 0.0 1.6 0.00 0.36 0.00 74 1021.4
20260506150546 9 269 0.0 1.6 0.00 0.36 0.00 75 1021.6
20260506150044 9 49 0.0 0.0 0.00 0.36 0.00 78 1021.5
20260506145546 8 49 0.0 0.0 0.00 0.41 0.00 79 1021.5
20260506145041 8 49 0.0 0.0 0.00 0.41 0.00 81 1021.5
20260506144541 8 49 0.0 0.0 0.00 0.41 0.00 82 1021.4
20260506144041 7 49 0.0 0.0 0.00 0.41 0.00 82 1021.4
20260506143542 7 49 0.0 1.6 0.00 0.41 0.00 83 1021.4
20260506143041 7 49 0.0 1.6 0.00 0.41 0.00 83 1021.4
20260506142542 7 49 0.0 3.2 0.00 0.41 0.00 82 1021.4
20260506142040 6 49 1.6 3.2 0.00 0.41 0.00 82 1021.4
20260506141541 6 49 1.6 3.2 0.00 0.41 0.00 82 1021.3
20260506141040 6 49 0.0 3.2 0.00 0.41 0.00 82 1021.3
20260506140544 6 49 1.6 3.2 0.00 0.41 0.00 82 1021.1
20260506140040 6 49 1.6 3.2 0.00 0.41 0.00 82 1021.1
20260506135539 6 49 1.6 3.2 0.00 0.43 0.00 82 1021.2
20260506135039 6 49 1.6 3.2 0.00 0.43 0.00 81 1021.1
20260506134538 6 49 1.6 3.2 0.00 0.43 0.00 81 1021.1
20260506134037 6 49 1.6 3.2 0.00 0.43 0.00 81 1020.9
20260506133537 6 49 1.6 3.2 0.00 0.43 0.00 81 1020.8
20260506133036 6 49 1.6 3.2 0.00 0.43 0.00 81 1020.8
20260506132536 6 49 1.6 3.2 0.00 0.43 0.00 81 1020.8
20260506132036 6 49 1.6 3.2 0.00 0.43 0.00 81 1020.7
20260506131537 6 49 1.6 3.2 0.00 0.43 0.00 81 1020.8
20260506131035 6 49 1.6 3.2 0.00 0.43 0.00 82 1020.6
20260506130536 6 49 1.6 3.2 0.00 0.43 0.00 82 1020.7
20260506130038 6 49 0.0 3.2 0.00 0.43 0.00 82 1020.5
20260506125532 6 49 1.6 3.2 0.00 0.43 0.00 82 1020.5
20260506125032 6 49 1.6 3.2 0.00 0.43 0.00 82 1020.4
20260506124533 6 49 1.6 3.2 0.00 0.43 0.00 82 1020.4
20260506124032 6 49 1.6 3.2 0.00 0.43 0.00 82 1020.5
20260506123532 5 49 1.6 3.2 0.00 0.43 0.00 83 1020.3
20260506123032 5 49 0.0 3.2 0.00 0.43 0.00 83 1020.3
20260506122531 5 49 1.6 3.2 0.00 0.43 0.00 83 1020.4
20260506122031 5 49 1.6 3.2 0.00 0.43 0.00 82 1020.3
20260506121530 6 49 1.6 3.2 0.00 0.43 0.00 82 1020.3
20260506121030 6 49 1.6 3.2 0.00 0.43 0.00 83 1020.2
20260506120530 6 49 1.6 3.2 0.00 0.43 0.00 82 1020.1
20260506120032 6 49 3.2 3.2 0.00 0.43 0.00 83 1020.3
20260506115530 6 49 0.0 3.2 0.00 0.43 0.00 82 1020.3
20260506115029 6 49 1.6 3.2 0.00 0.43 0.00 82 1020.3
20260506114528 6 49 1.6 3.2 0.00 0.43 0.00 82 1020.3
20260506114028 6 49 1.6 3.2 0.00 0.43 0.00 82 1020.2
20260506113529 6 49 1.6 3.2 0.00 0.43 0.00 81 1020.1
20260506113027 6 49 0.0 1.6 0.00 0.43 0.00 82 1019.9
20260506112530 6 49 0.0 3.2 0.00 0.43 0.00 82 1020.0
20260506112030 6 49 1.6 3.2 0.00 0.43 0.00 83 1019.9
20260506111530 6 49 1.6 3.2 0.00 0.43 0.00 82 1020.0
20260506111025 6 49 1.6 3.2 0.00 0.43 0.00 83 1019.9
20260506110524 6 49 1.6 3.2 0.00 0.43 0.00 83 1019.9
20260506110023 6 49 1.6 3.2 0.00 0.43 0.00 83 1019.7
20260506105524 6 49 1.6 3.2 0.00 0.43 0.00 82 1019.6
20260506105022 6 49 1.6 3.2 0.00 0.43 0.00 82 1019.8
20260506104522 6 49 1.6 3.2 0.00 0.43 0.00 82 1019.8
20260506104022 6 49 1.6 3.2 0.00 0.43 0.00 82 1019.7
20260506103522 6 49 1.6 3.2 0.00 0.43 0.00 83 1019.5
20260506103019 6 49 1.6 3.2 0.00 0.43 0.00 82 1019.6
20260506102518 6 49 1.6 3.2 0.00 0.43 0.00 82 1019.6
20260506102018 6 49 0.0 1.6 0.00 0.43 0.00 81 1019.7
20260506101517 6 49 0.0 3.2 0.00 0.43 0.00 82 1019.6
20260506101017 6 49 0.0 3.2 0.00 0.43 0.00 82 1019.5
20260506100517 6 49 1.6 3.2 0.00 0.43 0.00 82 1019.5
20260506100017 6 60 0.0 1.6 0.00 0.43 0.00 83 1019.5
20260506095517 6 60 0.0 3.2 0.00 0.43 0.00 82 1019.6
20260506095019 6 60 1.6 3.2 0.00 0.43 0.00 82 1019.3
20260506094517 6 60 0.0 3.2 0.00 0.43 0.00 82 1019.5
20260506094014 6 63 1.6 3.2 0.00 0.43 0.00 82 1019.4
20260506093516 7 63 1.6 3.2 0.00 0.43 0.00 82 1019.4
20260506093011 7 64 1.6 3.2 0.00 0.43 0.00 82 1019.5
20260506092510 7 72 0.0 1.6 0.00 0.43 0.00 82 1019.6
20260506092010 7 77 0.0 1.6 0.00 0.43 0.00 82 1019.4
20260506091509 7 77 0.0 1.6 0.00 0.43 0.00 82 1019.5
20260506091012 7 82 0.0 1.6 0.00 0.43 0.00 83 1019.6
20260506090508 7 82 0.0 1.6 0.00 0.43 0.00 83 1019.5
20260506090007 7 82 0.0 1.6 0.00 0.43 0.00 82 1019.5
20260506085506 8 82 0.0 1.6 0.00 0.43 0.00 83 1019.5
20260506085006 8 84 0.0 1.6 0.00 0.43 0.00 82 1019.5
20260506084506 8 84 0.0 1.6 0.00 0.43 0.00 82 1019.6
20260506084006 8 87 0.0 1.6 0.00 0.43 0.00 82 1019.5
20260506083506 8 87 0.0 1.6 0.00 0.43 0.00 82 1019.6
20260506083014 8 87 0.0 0.0 0.00 0.43 0.00 82 1019.5
20260506082505 8 87 0.0 1.6 0.00 0.43 0.00 82 1019.5
20260506082004 8 87 0.0 1.6 0.00 0.43 0.00 81 1019.5
20260506081504 8 87 0.0 1.6 0.00 0.43 0.00 82 1019.6
20260506081006 8 87 0.0 1.6 0.00 0.43 0.00 83 1019.7
20260506080504 8 213 0.0 1.6 0.00 0.43 0.00 83 1019.7
20260506073504 8 212 0.0 3.2 0.00 0.43 0.00 82 1019.5
20260506073004 8 46 0.0 1.6 0.00 0.43 0.00 82 1019.5
20260506072502 8 46 0.0 1.6 0.00 0.43 0.00 82 1019.3
20260506072101 8 46 0.0 1.6 0.00 0.43 0.00 82 1019.3
20260506071600 8 46 0.0 1.6 0.00 0.43 0.00 82 1019.3
20260506071059 8 46 0.0 1.6 0.00 0.43 0.00 82 1019.3
20260506070558 8 46 0.0 1.6 0.00 0.43 0.00 83 1019.3
20260506062055 8 46 0.0 1.6 0.00 0.43 0.43 83 1018.9
20260506061555 8 46 0.0 1.6 0.00 0.43 0.43 83 1019.0
20260506061055 8 46 0.0 1.6 0.00 0.43 0.43 83 1019.0
20260506060555 8 46 0.0 1.6 0.00 0.43 0.43 83 1019.0
20260506051050 8 46 0.0 1.6 0.00 0.43 0.43 82 1018.5
20260506050550 8 46 0.0 1.6 0.00 0.43 0.43 82 1018.4
20260506050107 8 46 0.0 1.6 0.00 0.43 0.43 82 1018.3
20260506045048 8 46 0.0 1.6 0.00 0.43 0.43 82 1018.3
20260506044548 8 46 0.0 1.6 0.00 0.43 0.43 82 1018.3
20260506044048 8 46 0.0 1.6 0.00 0.43 0.43 82 1018.3
20260506043548 8 46 0.0 1.6 0.00 0.43 0.43 82 1018.2
20260506043049 8 46 0.0 1.6 0.00 0.43 0.43 82 1018.2
20260506042547 8 46 0.0 1.6 0.00 0.43 0.43 82 1018.1
20260506042050 8 46 0.0 0.0 0.00 0.43 0.43 82 1018.1
20260506041558 8 46 0.0 1.6 0.00 0.43 0.43 82 1018.1
20260506041045 8 46 0.0 1.6 0.00 0.43 0.43 82 1018.0
20260506040545 8 46 0.0 1.6 0.00 0.43 0.43 82 1017.9
20260506040045 8 46 0.0 1.6 0.00 0.43 0.43 82 1017.9
20260506035544 8 46 0.0 1.6 0.00 0.43 0.43 82 1017.9
20260506035044 8 46 0.0 0.0 0.00 0.43 0.43 81 1017.7
20260506034551 8 46 0.0 0.0 0.00 0.43 0.43 80 1017.6
20260506034042 8 46 0.0 1.6 0.00 0.43 0.43 80 1017.5
20260506033543 8 46 0.0 1.6 0.00 0.43 0.43 81 1017.6
20260506033043 8 46 0.0 1.6 0.00 0.43 0.43 82 1017.5
20260506032545 8 48 0.0 1.6 0.00 0.43 0.43 83 1017.5
20260506032042 8 46 0.0 1.6 0.00 0.43 0.43 82 1017.4
20260506031543 8 46 0.0 1.6 0.00 0.43 0.43 82 1017.4
20260506031041 8 46 0.0 0.0 0.00 0.43 0.43 82 1017.3
20260506030545 8 48 0.0 0.0 0.00 0.43 0.43 81 1017.3
20260506030040 8 48 0.0 0.0 0.00 0.43 0.43 81 1017.2
20260506025539 8 48 0.0 0.0 0.00 0.43 0.43 80 1017.2
20260506025039 8 48 0.0 0.0 0.00 0.43 0.43 79 1017.1
20260506024539 8 48 0.0 0.0 0.00 0.43 0.43 79 1017.1
20260506024039 8 48 0.0 0.0 0.00 0.43 0.43 80 1017.0
20260506023539 8 48 0.0 0.0 0.00 0.43 0.43 81 1017.1
20260506023039 8 48 0.0 0.0 0.00 0.43 0.43 81 1017.1
20260506022538 8 48 0.0 1.6 0.00 0.43 0.43 80 1017.0
20260506022041 8 48 0.0 1.6 0.00 0.43 0.43 80 1017.0
20260506021538 9 46 0.0 0.0 0.00 0.43 0.43 80 1016.8
20260506021037 9 46 0.0 1.6 0.00 0.43 0.43 80 1016.8
20260506020538 9 46 0.0 1.6 0.00 0.43 0.43 79 1016.9
20260506020040 9 48 0.0 1.6 0.00 0.43 0.43 79 1016.8
20260506015537 9 48 0.0 1.6 0.00 0.43 0.43 80 1016.7
20260506015037 9 48 0.0 0.0 0.00 0.43 0.43 80 1016.7
20260506014538 9 48 0.0 0.0 0.00 0.43 0.43 80 1016.6
20260506014037 9 48 0.0 0.0 0.00 0.43 0.43 80 1016.6
20260506013537 9 48 0.0 1.6 0.00 0.43 0.43 79 1016.6
20260506013050 9 49 0.0 1.6 0.00 0.43 0.43 80 1016.5
20260506012539 9 48 0.0 4.8 0.00 0.43 0.43 78 1016.7
20260506012037 9 41 1.6 4.8 0.00 0.43 0.43 79 1016.6
20260506011542 9 53 0.0 9.7 0.00 0.43 0.43 78 1016.5
20260506011036 9 63 1.6 11.3 0.00 0.43 0.43 78 1016.5
20260506010537 9 46 4.8 11.3 0.00 0.43 0.43 78 1016.6
20260506010037 8 56 3.2 9.7 0.00 0.43 0.43 77 1016.5
20260506005535 8 56 4.8 9.7 0.00 0.43 0.43 78 1016.3
20260506005034 8 64 4.8 9.7 0.00 0.43 0.43 77 1016.4
20260506004534 8 41 4.8 9.7 0.00 0.43 0.43 77 1016.1
20260506004035 8 31 1.6 9.7 0.00 0.43 0.43 79 1016.3
20260506003534 8 61 4.8 9.7 0.00 0.43 0.43 78 1016.1
20260506003033 8 53 6.4 11.3 0.00 0.43 0.43 80 1016.2
20260506002533 8 49 4.8 12.9 0.00 0.43 0.43 79 1016.2
20260506002032 8 48 4.8 12.9 0.00 0.43 0.43 80 1016.1
20260506001533 8 40 6.4 12.9 0.00 0.43 0.43 81 1016.1
20260506001033 8 27 4.8 12.9 0.00 0.43 0.43 81 1016.2
20260506000532 8 45 6.4 12.9 0.00 0.43 0.43 81 1016.1
20260506000032 9 54 4.8 12.9 0.00 0.43 0.43 81 1016.1
20260505235532 9 48 6.4 12.9 0.00 0.46 0.43 80 1015.9
20260505235032 10 45 6.4 11.3 0.00 0.46 0.43 80 1015.8
20260505234533 10 86 3.2 11.3 0.00 0.46 0.43 81 1015.7
20260505234033 10 56 3.2 9.7 0.00 0.46 0.43 81 1015.8
20260505233530 10 30 3.2 6.4 0.00 0.46 0.43 82 1016.0
20260505233029 10 60 1.6 8.0 0.00 0.46 0.43 83 1016.1
20260505232528 10 114 0.0 8.0 0.00 0.46 0.43 85 1016.1
20260505232028 10 236 0.0 3.2 0.00 0.46 0.43 85 1016.3
20260505231528 10 248 0.0 1.6 0.03 0.46 0.43 86 1016.5
20260505231025 9 248 0.0 1.6 0.05 0.46 0.43 86 1016.5
20260505230525 9 240 0.0 1.6 0.05 0.46 0.43 85 1016.7
20260505230024 8 272 0.0 1.6 0.08 0.46 0.43 85 1016.6
20260505225524 8 54 0.0 1.6 0.08 0.53 0.43 86 1016.7
20260505225027 8 55 0.0 4.8 0.08 0.53 0.43 86 1016.8
20260505224524 8 53 0.0 4.8 0.08 0.53 0.43 85 1016.8
20260505224023 8 59 0.0 3.2 0.08 0.53 0.43 86 1016.8
20260505223526 8 150 0.0 3.2 0.08 0.53 0.43 86 1017.0
20260505223026 8 211 0.0 1.6 0.08 0.53 0.43 86 1017.0
20260505222527 8 226 0.0 1.6 0.08 0.53 0.43 86 1017.0
20260505222023 8 219 0.0 1.6 0.08 0.53 0.43 86 1017.0
20260505221523 8 236 0.0 1.6 0.08 0.51 0.41 86 1017.1
20260505221022 8 236 0.0 1.6 0.05 0.48 0.38 85 1017.1
20260505220522 8 236 0.0 1.6 0.05 0.48 0.38 85 1017.0
20260505220035 8 236 0.0 3.2 0.03 0.46 0.36 85 1017.2
20260505215523 8 264 0.0 4.8 0.03 0.53 0.36 85 1017.0
20260505215021 8 243 0.0 4.8 0.03 0.53 0.36 85 1017.2
20260505214523 8 259 0.0 6.4 0.03 0.53 0.36 85 1017.0
20260505214020 8 268 0.0 4.8 0.03 0.53 0.36 86 1017.0
20260505213523 8 207 0.0 3.2 0.03 0.53 0.36 85 1016.9
20260505213021 8 220 0.0 3.2 0.03 0.53 0.36 85 1017.0
20260505212520 8 250 0.0 3.2 0.03 0.53 0.36 85 1017.1
20260505212022 8 245 0.0 3.2 0.03 0.53 0.36 85 1017.1
20260505211519 8 254 0.0 4.8 0.00 0.51 0.33 85 1017.0
20260505211021 8 256 1.6 4.8 0.00 0.51 0.33 85 1016.9
20260505210521 8 289 1.6 0.0 0.00 0.00 0.33 85 1016.9
20260505210017 8 273 1.6 4.8 0.03 0.51 0.33 85 1016.9
20260505205517 8 257 0.0 8.0 0.03 0.66 0.33 86 1016.8
20260505205016 8 264 0.0 8.0 0.03 0.66 0.33 86 1016.8
20260505204515 8 246 0.0 6.4 0.03 0.66 0.33 86 1016.8
20260505204015 8 273 0.0 6.4 0.03 0.66 0.33 85 1016.8
20260505203515 8 268 0.0 4.8 0.05 0.66 0.33 86 1016.7
20260505203014 8 239 1.6 4.8 0.05 0.66 0.33 85 1016.7
20260505202514 8 247 0.0 4.8 0.08 0.66 0.33 85 1016.8
20260505202013 8 255 0.0 9.7 0.10 0.66 0.33 85 1016.7
20260505201513 8 244 1.6 9.7 0.18 0.66 0.33 85 1016.6
20260505201013 8 279 0.0 8.0 0.20 0.66 0.33 85 1016.6
20260505200515 8 258 3.2 8.0 0.20 0.64 0.30 86 1016.5
20260505200022 8 248 0.0 1.6 0.20 0.64 0.30 86 1016.6
20260505195511 8 246 0.0 8.0 0.20 0.71 0.30 86 1016.6
20260505195015 8 349 0.0 8.0 0.20 0.71 0.30 86 1016.5
20260505194509 8 332 0.0 3.2 0.20 0.71 0.30 86 1016.5
20260505194009 8 73 0.0 6.4 0.20 0.71 0.30 86 1016.5
20260505193507 8 256 0.0 6.4 0.18 0.69 0.28 86 1016.6
20260505193009 7 242 0.0 1.6 0.18 0.69 0.28 86 1016.4
20260505192509 7 259 0.0 0.0 0.15 0.66 0.25 86 1016.6
20260505192006 7 257 0.0 1.6 0.10 0.61 0.20 86 1016.5
20260505191511 7 263 0.0 4.8 0.05 0.56 0.15 86 1016.6
20260505191010 7 243 0.0 4.8 0.00 0.51 0.10 86 1016.5
20260505190504 7 249 0.0 4.8 0.00 0.51 0.10 85 1016.4
20260505190007 7 257 0.0 4.8 0.00 0.51 0.10 85 1016.3
20260505185503 7 250 1.6 4.8 0.00 0.51 0.10 85 1016.2
20260505185003 7 259 0.0 4.8 0.00 0.51 0.10 85 1016.2
20260505184503 7 278 0.0 4.8 0.00 0.51 0.10 85 1016.2
20260505184003 7 236 0.0 4.8 0.00 0.51 0.10 86 1016.1
20260505183502 7 279 0.0 4.8 0.00 0.51 0.10 86 1016.2
20260505183002 7 231 0.0 4.8 0.00 0.51 0.10 86 1016.2
20260505182501 7 255 0.0 6.4 0.00 0.51 0.10 85 1016.2
20260505182101 7 274 0.0 6.4 0.00 0.51 0.10 86 1016.2
20260505181502 7 225 0.0 6.4 0.00 0.51 0.10 86 1016.2
20260505181101 7 264 0.0 6.4 0.00 0.51 0.10 85 1016.1
20260505180559 7 281 0.0 6.4 0.00 0.51 0.10 85 1016.1